Simultaneous Nadir Overpasses (SNOs) Predictions

Prediction of SNOs between NOAA-20 and METOP-C Satellite Orbit:

Table of predicted SNOs for the next 14.0 days since TLE Epoch: 9/23/2023
Index Date (NOAA-20) Time (NOAA-20) Lat,Lon (NOAA-20) SZA (NOAA-20 ) Date (METOP-C) Time (METOP-C) Lat,Lon (METOP-C) SZA (METOP-C ) Distance(km) Time Diff (sec)
1 09/30/2023 19:02:39 73.63,-115.62 76.60 09/30/2023 19:03:45 73.56,-112.72 76.44 91.29 66
2 09/30/2023 19:53:21 -73.54, 51.91 103.49 09/30/2023 19:54:28 -73.49, 54.45 103.61 80.13 67
3 09/30/2023 20:44:03 73.34,-140.33 76.32 09/30/2023 20:45:12 73.28,-138.69 76.20 52.77 69
4 09/30/2023 21:34:45 -73.25, 27.19 103.77 09/30/2023 21:35:56 -73.17, 28.38 103.90 39.18 71
5 09/30/2023 22:25:27 73.05,-165.06 76.03 09/30/2023 22:26:39 73.00,-164.64 75.97 14.65 72
6 09/30/2023 23:16:09 -72.95, 2.45 104.06 09/30/2023 23:17:22 -72.94, 2.55 104.09 3.77 73
7 10/01/2023 00:06:54 72.90, 169.87 75.91 10/01/2023 00:08:02 72.92, 169.86 75.92 2.20 68
8 10/01/2023 00:57:38 -72.91, -22.83 104.07 10/01/2023 00:58:44 -72.91, -22.85 104.09 0.65 66
9 10/01/2023 01:48:24 72.91, 144.47 75.95 10/01/2023 01:49:24 72.90, 144.46 75.92 2.06 60
10 10/01/2023 02:39:08 -72.92, -48.23 104.04 10/01/2023 02:40:05 -72.93, -48.14 104.04 3.10 57
11 10/01/2023 03:29:54 72.92, 119.08 75.98 10/01/2023 03:30:45 72.92, 119.17 75.97 2.94 51
12 10/01/2023 04:20:37 -72.88, -73.52 104.05 10/01/2023 04:21:27 -72.90, -73.54 104.04 2.55 50
13 10/01/2023 05:11:23 72.88, 93.79 75.97 10/01/2023 05:12:07 72.89, 93.77 75.97 1.18 44
14 10/01/2023 06:02:07 -72.89, -98.91 104.02 10/01/2023 06:02:49 -72.88, -98.93 104.03 1.83 42
15 10/01/2023 06:52:53 72.89, 68.40 76.00 10/01/2023 06:53:29 72.86, 68.37 75.97 3.38 36
16 10/01/2023 07:43:37 -72.90,-124.30 103.98 10/01/2023 07:44:10 -72.90,-124.23 103.99 2.58 33
17 10/01/2023 08:34:23 72.90, 43.00 76.04 10/01/2023 08:34:50 72.89, 43.08 76.02 3.06 27
18 10/01/2023 09:25:06 -72.86,-149.59 103.99 10/01/2023 09:25:32 -72.87,-149.62 103.99 1.66 26
19 10/01/2023 10:15:52 72.86, 17.72 76.02 10/01/2023 10:16:12 72.86, 17.68 76.02 1.21 20
20 10/01/2023 11:06:36 -72.87,-174.99 103.96 10/01/2023 11:06:54 -72.84,-175.02 103.98 3.04 18
21 10/01/2023 11:57:22 72.87, -7.68 76.06 10/01/2023 11:57:33 72.88, -7.61 76.07 2.46 11
22 10/01/2023 12:48:06 -72.88, 159.62 103.92 10/01/2023 12:48:15 -72.87, 159.69 103.94 2.58 9
23 10/01/2023 13:38:51 72.83, -32.97 76.05 10/01/2023 13:38:55 72.85, -33.01 76.07 2.92 4
24 10/01/2023 14:29:35 -72.84, 134.33 103.94 10/01/2023 14:29:37 -72.84, 134.29 103.93 1.38 2
25 10/01/2023 15:20:21 72.84, -58.36 76.08 10/01/2023 15:20:17 72.82, -58.41 76.07 2.27 4
26 10/01/2023 16:11:05 -72.85, 108.94 103.90 10/01/2023 16:10:58 -72.86, 109.00 103.89 2.56 7
27 10/01/2023 17:01:51 72.85, -83.75 76.12 10/01/2023 17:01:38 72.85, -83.70 76.12 1.80 13
28 10/01/2023 17:52:35 -72.86, 83.54 103.86 10/01/2023 17:52:20 -72.83, 83.60 103.88 3.13 15
29 10/01/2023 18:43:20 72.81,-109.04 76.10 10/01/2023 18:43:00 72.82,-109.10 76.12 2.21 20
30 10/01/2023 19:34:04 -72.82, 58.26 103.88 10/01/2023 19:33:42 -72.81, 58.20 103.88 2.01 22
31 10/01/2023 20:24:50 72.82,-134.44 76.14 10/01/2023 20:24:21 72.84,-134.39 76.17 3.10 29
32 10/01/2023 21:15:34 -72.83, 32.86 103.84 10/01/2023 21:15:03 -72.83, 32.91 103.84 1.69 31
33 10/01/2023 22:06:20 72.83,-159.83 76.18 10/01/2023 22:05:43 72.81,-159.79 76.17 2.05 37
34 10/01/2023 22:57:03 -72.78, 7.57 103.86 10/01/2023 22:56:25 -72.80, 7.51 103.83 2.72 38
35 10/01/2023 23:47:49 72.78, 174.88 76.16 10/01/2023 23:47:05 72.78, 174.81 76.17 2.21 44
36 10/02/2023 00:38:33 -72.79, -17.82 103.82 10/02/2023 00:37:47 -72.77, -17.88 103.83 3.04 46
37 10/02/2023 01:29:19 72.79, 149.49 76.20 10/02/2023 01:28:26 72.81, 149.52 76.22 1.79 53
38 10/02/2023 02:20:03 -72.80, -43.21 103.78 10/02/2023 02:19:08 -72.80, -43.18 103.79 1.51 55
39 10/02/2023 03:10:49 72.80, 124.09 76.24 10/02/2023 03:09:48 72.78, 124.12 76.22 3.00 61
40 10/02/2023 04:01:32 -72.76, -68.50 103.80 10/02/2023 04:00:30 -72.77, -68.57 103.78 2.37 62
41 10/02/2023 04:52:18 72.76, 98.80 76.22 10/02/2023 04:51:10 72.75, 98.73 76.22 2.93 68
42 10/02/2023 05:43:02 -72.77, -93.90 103.76 10/02/2023 05:41:51 -72.79, -93.86 103.74 2.41 71
43 10/02/2023 06:33:46 72.67, 73.62 76.15 10/02/2023 06:32:33 72.67, 73.22 76.17 13.11 73
44 10/02/2023 07:24:29 -72.63,-118.98 103.89 10/02/2023 07:23:16 -72.61,-119.57 103.88 19.85 73
45 10/02/2023 08:15:10 72.37, 48.84 75.86 10/02/2023 08:14:00 72.39, 47.31 75.93 51.42 70
46 10/02/2023 09:05:53 -72.33,-143.76 104.17 10/02/2023 09:04:43 -72.33,-145.47 104.11 57.85 70
47 10/02/2023 09:56:34 72.08, 24.05 75.58 10/02/2023 09:55:27 72.10, 21.42 75.69 89.75 67
48 10/02/2023 10:47:17 -72.04,-168.56 104.45 10/02/2023 10:46:11 -71.99,-171.46 104.40 99.54 66



Historial Predications of SNOs between NOAA-20 and METOP-C
